Regional Weather Roundup
Issued by NWS

Home | Current Version | Previous Version | Text Only | Print | Product List | Glossary On
Versions: 1 2 3 4 5 6 7 8 9 10 11 12 13 14 15 16 17 18 19 20 21 22 23 24 25 26 27
000
ASUS45 KBOU 151707
RWRCO

WEATHER ROUNDUP FOR COLORADO
NATIONAL WEATHER SERVICE DENVER/BOULDER CO
1100 AM MDT TUE AUG 15 2017

NOTE: "FAIR" INDICATES FEW OR NO CLOUDS BELOW 12000 FEET WITH NO
SIGNIFICANT WEATHER AND/OR OBSTRUCTIONS TO VISIBILITY.

COZ001>005-013-030-031-151800-
...NORTHWEST COLORADO...

CITY           SKY/WX    TMP DP  RH WIND       PRES   REMARKS
CRAIG          FAIR      69  50  50 NW6       30.04S
HAYDEN         FAIR      64  46  52 VRB3      30.07S
MEEKER         FAIR      66  52  60 SW6       30.04S
RABBIT EARS PA FAIR      54  37  54 SW5       30.30S
STEAMBOAT SPGS FAIR      65  50  57 CALM      30.06S
WALDEN         FAIR      57  46  67 CALM      30.15F
$$

COZ006>008-011-151800-
...WEST CENTRAL VALLEYS...

CITY           SKY/WX    TMP DP  RH WIND       PRES   REMARKS
GRAND JUNCTION FAIR      81  40  23 S9        29.93S
MONTROSE       FAIR      78  32  18 E6        30.03S
EAGLE          FAIR      67  45  45 E5        30.08F
RIFLE          FAIR      71  46  40 CALM      29.99F
DELTA          FAIR      80  33  18 SE5       30.00S
NUCLA          FAIR      77  21  12 SW10      30.08S
$$

COZ017>023-064>068-151800-
...SOUTHWEST COLORADO...

CITY           SKY/WX    TMP DP  RH WIND       PRES   REMARKS
DURANGO        FAIR      72  34  24 MISG      30.13F
CORTEZ         FAIR      76  36  23 S13       30.09R
PAGOSA SPRINGS FAIR      69  31  24 W7        30.21S
TELLURIDE      FAIR      63  25  23 N3        30.28S
WOLF CREEK PAS FAIR      46  34  61 SW13G22   30.49S
$$

COZ009-010-012-014-032>034-037-058>063-151800-
...CENTRAL COLORADO...

CITY           SKY/WX    TMP DP  RH WIND       PRES   REMARKS
ASPEN          FAIR      69  38  32 N7        30.12S
BUENA VISTA    FAIR      65  43  45 SE5       30.16F
COPPER MTN     FAIR      54  32  43 W3        30.43R
BERTHOUD PASS  PTSUNNY   45  39  81 NW10G21   30.45R
COTTONWOOD PAS FAIR      63  43  48 CALM      30.29S
GUNNISON       FAIR      61  45  55 W3        30.18F
KREMMLING      FAIR      63  48  59 E3        30.13F
LEADVILLE      FAIR      57  39  51 CALM      30.26S
MONARCH PASS   FAIR      50  28  43 W18G29    30.54R
SALIDA         FAIR      70  49  46 CALM      30.20S
SUNLIGHT       FAIR      55  37  50 SW9       30.36R
WILKERSON PASS FAIR      55  34  44 SW9G17    30.40S
$$

COZ069>075-151800-
...SAN LUIS VALLEY/SANGRE DE CRISTO MOUNTAINS...

CITY           SKY/WX    TMP DP  RH WIND       PRES   REMARKS
ALAMOSA        FAIR      69  45  41 VRB6      30.15F
DEL NORTE      FAIR      69  44  39 W5        30.18F
LA VETA PASS   NOT AVBL
SAGUACHE       FAIR      64  46  52 SE7       30.18F
$$

COZ035-036-038>040-151800-
...NORTHERN COLORADO FRONT RANGE...

CITY           SKY/WX    TMP DP  RH WIND       PRES   REMARKS
DENVER INTL AP PTSUNNY   76  52  43 NW6       29.96S
DMNS CITY PARK   N/A     74  50  43 NE3G20    29.96S
AURORA         PTSUNNY   73  52  47 W7        29.98S
FRONT RANGE AP FAIR      72  55  56 CALM      29.98R
ERIE MUNI ARPT FAIR      74  50  42 N12       30.00R
BOULDER MUN AP FAIR      72  52  49 N7        29.97S
CENTENNIAL     PTSUNNY   76  50  40 VRB7      29.98S
BROOMFIELD     FAIR      73  52  46 NW8       30.00R
FORT COLLINS   FAIR      72  57  59 VRB6      29.97S
LONGMONT       FAIR      77  56  48 N8        29.98S
$$

COZ041-046-047-076>085-087-088-151800-
...PIKES PEAK/PALMER DIVIDE AND SOUTHERN FOOTHILLS...

CITY           SKY/WX    TMP DP  RH WIND       PRES   REMARKS
COLO. SPRINGS  FAIR      76  54  46 CALM      30.02S
A. F. ACADEMY  PTSUNNY   72  55  54 CALM      30.02F
SCHRIEVER AFB  PTSUNNY   72  55  54 CALM      30.02S
CHEYENNE MTN   FAIR      71  53  52 NE3       30.01S
ELLICOTT       FAIR     N/A N/A N/A CALM      30.00S
FALCON         PTSUNNY   75  40  28 W8        30.07S
FORT CARSON    FAIR      73  58  59 CALM      29.98F
LIMON          FAIR      74  59  59 CALM      29.96F
MONUMENT HILL  CLOUDY    68  50  52 CALM      30.08S
CANON CITY     SUNNY     84  48  28 MISG      29.95S
WALSENBURG     FAIR      84  45  24 W12G21    30.00S
TRINIDAD       FAIR      81  47  30 VRB3      29.99R
$$

COZ042>045-048>051-090-091-151800-
...NORTHEAST COLORADO...

CITY           SKY/WX    TMP DP  RH WIND       PRES   REMARKS
GREELEY ARPT   FAIR      74  58  57 VRB3      29.95F
AKRON          FAIR      72  59  63 E10       29.92F
BURLINGTON     FAIR      74  64  71 SE9       29.90S
WRAY           NOT AVBL
YUMA           FAIR      72  55  56 E7        29.89F
STERLING       FAIR      77  61  57 SE8       29.88F
HOLYOKE        FAIR      79  66  65 E10       29.88F
FORT MORGAN    FAIR      75  57  54 SE8       29.93S
$$

COZ086-089-092>099-151800-
...SOUTHEAST COLORADO...

CITY           SKY/WX    TMP DP  RH WIND       PRES   REMARKS
PUEBLO         FAIR      76  54  46 W3        29.91S
LA JUNTA       FAIR      79  63  57 VRB3      29.89S
LAMAR          LGT RAIN  77  62  59 VRB5      29.85S
SPRINGFIELD      N/A     79  61  53 SE9       29.90S
$$




USA.gov is the U.S. government's official web portal to all federal, state and local government web resources and services.